Tracking 31027 objects as of 19-Jul-2025
HD Live streaming from Space Station
objects crossing your sky now

COSMOS 1285 DEB

Track COSMOS 1285 DEB now!


NORAD ID: 27801
Int'l Code: 1981-071Q
Perigee: 1,140.1 km
Apogee: 39,702.0 km
Inclination: 64.1 °
Period: 727.4 minutes
Semi major axis: 26792 km
RCS: 0.1262 m2 (medium)
Launch date: August 4, 1981
Source: Commonwealth of Independent States (former USSR) (CIS)
Launch site: PLESETSK MISSILE AND SPACE COMPLEX (PKMTR)

Note: This is SATELLITE DEBRIS
Your satellite tracking list
GALASSIA
Track 1 satellite(s)




NASA's NSSDC Master Catalog

Two Line Element Set (TLE):
1 27801U 81071Q   25199.60443694 -.00000825  00000-0  00000-0 0  9993
2 27801  64.0844  80.4734 7196537  38.7021 355.4381  1.97967561176960
Source of the keplerian elements: AFSPC